Regional Weather Roundup
Issued by NWS

Home | Current Version | Previous Version | Graphics & Text | Print | Product List | Glossary On
Versions: 1 2 3 4 5 6 7 8 9 10 11 12 13 14 15 16 17 18 19 20 21 22 23 24 25 26 27 28 29 30 31 32 33 34 35 36 37 38 39 40 41 42 43 44 45 46 47 48 49 50
000
ASUS43 KLMK 271602
RWRKY
KENTUCKY REGIONAL WEATHER ROUNDUP
NATIONAL WEATHER SERVICE LOUISVILLE KY
1200 PM EDT WED MAY 27 2015

NOTE "FAIR" INDICATES FEW OR NO CLOUDS BELOW 12,000 FEET
WITH NO SIGNIFICANT WEATHER AND/OR OBSTRUCTIONS TO VISIBILITY.

KYZ001>023-026-027-061>063-070>075-271700-
WESTERN AND SOUTH CENTRAL KENTUCKY

CITY           SKY/WX    TMP DP  RH WIND       PRES   REMARKS
PADUCAH        MOSUNNY   77  63  61 N5        30.11F
HENDERSON      PTSUNNY   68  64  88 CALM      30.12S THUNDER
OWENSBORO      CLOUDY    78  70  76 SW9       30.12F
HOPKINSVILLE   PTSUNNY   80  70  73 SW12      30.14F
BOWLING GREEN  PTSUNNY   79  69  71 SW13      30.17S
GLASGOW        NOT AVBL
$$

KYZ024-025-028>034-038-045-046-053-271700-
NORTH CENTRAL KENTUCKY

CITY           SKY/WX    TMP DP  RH WIND       PRES   REMARKS
LOUISVILLE/SDF PTSUNNY   79  66  64 S12       30.13S
LOUISVILLE/LOU PTSUNNY   77  66  68 VRB7      30.14S
FORT KNOX      PTSUNNY   77  67  71 SW13      30.14R
$$

KYZ035>037-039>044-047>052-055>060-089>105-271700-
NORTHEAST KENTUCKY

CITY           SKY/WX    TMP DP  RH WIND       PRES   REMARKS
LEXINGTON      MOSUNNY   77  67  71 SW12G20   30.17F
COVINGTON      PTSUNNY   75  63  66 SW10      30.14R
FRANKFORT      PTSUNNY   76  65  68 SW12      30.15S
$$

KYZ054-064>069-076>088-106>120-271700-
SOUTHEAST KENTUCKY

CITY           SKY/WX    TMP DP  RH WIND       PRES   REMARKS
JACKSON        CLOUDY    72  65  78 CALM      30.23F
LONDON         PTSUNNY   74  62  66 S10       30.24R
SOMERSET       NOT AVBL
MIDDLESBORO    CLOUDY    74  63  69 CALM      30.25S
MONTICELLO     PTSUNNY   76  67  73 SW3       30.25R
$$



USA.gov is the U.S. government's official web portal to all federal, state and local government web resources and services.